| time (UTC) | temp F | wind direction | speed MPH | gust MPH | rain 1hr in | rain 24hr in | rain mn in | humidity % | barometer mb |
| 20260904151548 | 78 | 310 | 2.0 | 6.0 | 0.00 | 0.00 | 0.00 | 71 | 1008.4 |
| 20260904150047 | 77 | 281 | 2.0 | 10.0 | 0.00 | 0.00 | 0.00 | 71 | 1008.5 |
| 20260904144542 | 76 | 336 | 1.0 | 9.0 | 0.00 | 0.00 | 0.00 | 75 | 1008.6 |
| 20260904143039 | 75 | 314 | 1.0 | 9.0 | 0.00 | 0.00 | 0.00 | 78 | 1008.7 |
| 20260904141546 | 74 | 200 | 0.0 | 3.0 | 0.00 | 0.00 | 0.00 | 80 | 1008.8 |
| 20260904140032 | 73 | 314 | 0.0 | 9.0 | 0.00 | 0.00 | 0.00 | 81 | 1008.8 |
| 20260904134528 | 71 | 303 | 3.0 | 5.0 | 0.00 | 0.00 | 0.00 | 85 | 1008.8 |
| 20260904133025 | 70 | 305 | 2.0 | 6.0 | 0.00 | 0.00 | 0.00 | 89 | 1008.9 |
| 20260904131523 | 69 | 315 | 0.0 | 3.0 | 0.00 | 0.00 | 0.00 | 92 | 1008.9 |
| 20260904130020 | 69 | 315 | 0.0 | 3.0 | 0.00 | 0.00 | 0.00 | 93 | 1009.1 |
| 20260904124517 | 68 | 76 | 0.0 | 2.0 | 0.00 | 0.00 | 0.00 | 93 | 1009.0 |
| 20260904123015 | 66 | 76 | 0.0 | 0.0 | 0.00 | 0.00 | 0.00 | 93 | 1009.0 |
| 20260904121518 | 65 | 76 | 0.0 | 0.0 | 0.00 | 0.00 | 0.00 | 93 | 1009.0 |
| 20260904120016 | 64 | 76 | 0.0 | 0.0 | 0.00 | 0.00 | 0.00 | 92 | 1009.1 |
| 20260904114527 | 64 | 76 | 0.0 | 0.0 | 0.00 | 0.04 | 0.00 | 92 | 1009.1 |
| 20260904113012 | 63 | 76 | 0.0 | 0.0 | 0.00 | 0.04 | 0.00 | 91 | 1009.0 |
| 20260904111511 | 63 | 76 | 0.0 | 0.0 | 0.00 | 0.04 | 0.00 | 91 | 1009.1 |
| 20260904110021 | 63 | 76 | 0.0 | 0.0 | 0.00 | 0.04 | 0.00 | 91 | 1009.1 |
| 20260904104510 | 63 | 76 | 0.0 | 0.0 | 0.00 | 0.06 | 0.00 | 91 | 1009.1 |
| 20260904103009 | 63 | 76 | 0.0 | 0.0 | 0.00 | 0.06 | 0.00 | 91 | 1008.9 |
| 20260904101516 | 64 | 76 | 0.0 | 0.0 | 0.00 | 0.06 | 0.00 | 91 | 1008.9 |
| 20260904100007 | 64 | 76 | 0.0 | 0.0 | 0.00 | 0.06 | 0.00 | 91 | 1008.7 |
| 20260904094507 | 64 | 76 | 0.0 | 0.0 | 0.00 | 0.14 | 0.00 | 91 | 1008.6 |
| 20260904093007 | 64 | 76 | 0.0 | 0.0 | 0.00 | 0.14 | 0.00 | 91 | 1008.7 |
| 20260904091506 | 64 | 76 | 0.0 | 0.0 | 0.00 | 0.14 | 0.00 | 91 | 1008.7 |
| 20260904090005 | 64 | 76 | 0.0 | 0.0 | 0.00 | 0.14 | 0.00 | 91 | 1008.6 |
| 20260904084504 | 64 | 76 | 0.0 | 0.0 | 0.00 | 0.23 | 0.00 | 91 | 1008.5 |
| 20260904083003 | 64 | 76 | 0.0 | 0.0 | 0.00 | 0.23 | 0.00 | 91 | 1008.8 |
| 20260904081505 | 64 | 76 | 0.0 | 0.0 | 0.00 | 0.23 | 0.00 | 91 | 1008.9 |
| 20260904080002 | 64 | 76 | 0.0 | 0.0 | 0.00 | 0.23 | 0.00 | 91 | 1008.8 |
| 20260904074634 | 64 | 76 | 0.0 | 0.0 | 0.00 | 0.23 | 0.00 | 91 | 1008.8 |
| 20260904073057 | 65 | 76 | 0.0 | 0.0 | 0.00 | 0.23 | 0.00 | 91 | 1009.2 |
| 20260904071555 | 64 | 76 | 0.0 | 0.0 | 0.00 | 0.23 | 0.00 | 90 | 1009.3 |
| 20260904070054 | 64 | 76 | 0.0 | 0.0 | 0.00 | 0.23 | 0.00 | 90 | 1009.5 |
| 20260904064553 | 64 | 76 | 0.0 | 0.0 | 0.00 | 0.23 | 0.00 | 90 | 1009.5 |
| 20260904063107 | 65 | 76 | 0.0 | 0.0 | 0.00 | 0.23 | 0.00 | 90 | 1009.4 |
| 20260904061559 | 65 | 76 | 0.0 | 0.0 | 0.00 | 0.23 | 0.00 | 90 | 1009.6 |
| 20260904060109 | 65 | 76 | 0.0 | 0.0 | 0.00 | 0.23 | 0.00 | 90 | 1009.6 |
| 20260904054548 | 65 | 76 | 0.0 | 0.0 | 0.00 | 0.23 | 0.00 | 90 | 1009.7 |
| 20260904053046 | 65 | 76 | 0.0 | 0.0 | 0.00 | 0.23 | 0.00 | 90 | 1009.9 |
| 20260904051546 | 66 | 76 | 0.0 | 0.0 | 0.00 | 0.23 | 0.00 | 90 | 1010.0 |
| 20260904050043 | 66 | 76 | 0.0 | 0.0 | 0.00 | 0.23 | 0.00 | 90 | 1010.1 |
| 20260904044548 | 66 | 76 | 0.0 | 0.0 | 0.00 | 0.23 | 0.00 | 90 | 1010.4 |
| 20260904043040 | 67 | 76 | 0.0 | 0.0 | 0.00 | 0.23 | 0.00 | 90 | 1010.6 |
| 20260904041536 | 67 | 76 | 0.0 | 0.0 | 0.00 | 0.23 | 0.00 | 90 | 1010.5 |
| 20260904040034 | 67 | 76 | 0.0 | 0.0 | 0.00 | 0.23 | 0.00 | 89 | 1010.7 |
| 20260904034536 | 67 | 76 | 0.0 | 0.0 | 0.00 | 0.23 | 0.23 | 89 | 1010.6 |
| 20260904033036 | 68 | 76 | 0.0 | 0.0 | 0.00 | 0.23 | 0.23 | 90 | 1010.8 |
| 20260904031532 | 68 | 76 | 0.0 | 0.0 | 0.00 | 0.23 | 0.23 | 89 | 1010.7 |
| 20260904030032 | 68 | 76 | 0.0 | 0.0 | 0.00 | 0.23 | 0.23 | 89 | 1010.7 |
| 20260904024532 | 68 | 76 | 0.0 | 0.0 | 0.00 | 0.23 | 0.23 | 89 | 1010.8 |
| 20260904023031 | 69 | 76 | 0.0 | 0.0 | 0.00 | 0.23 | 0.23 | 89 | 1011.1 |
| 20260904021533 | 69 | 76 | 0.0 | 0.0 | 0.00 | 0.23 | 0.23 | 89 | 1011.1 |
| 20260904020030 | 69 | 76 | 0.0 | 0.0 | 0.00 | 0.23 | 0.23 | 89 | 1011.2 |
| 20260904014530 | 70 | 76 | 0.0 | 0.0 | 0.00 | 0.23 | 0.23 | 89 | 1011.2 |
| 20260904013033 | 70 | 76 | 0.0 | 0.0 | 0.00 | 0.23 | 0.23 | 89 | 1011.5 |
| 20260904011537 | 70 | 76 | 0.0 | 0.0 | 0.00 | 0.23 | 0.23 | 88 | 1011.5 |
| 20260904010043 | 70 | 76 | 0.0 | 0.0 | 0.00 | 0.23 | 0.23 | 88 | 1011.4 |
| 20260904004531 | 71 | 76 | 0.0 | 0.0 | 0.00 | 0.23 | 0.23 | 87 | 1011.3 |
| 20260904003029 | 71 | 76 | 0.0 | 0.0 | 0.00 | 0.23 | 0.23 | 87 | 1011.0 |
| 20260904001526 | 72 | 76 | 0.0 | 0.0 | 0.00 | 0.23 | 0.23 | 87 | 1011.0 |
| 20260904000026 | 72 | 76 | 0.0 | 0.0 | 0.00 | 0.23 | 0.23 | 87 | 1010.6 |
| 20260903234533 | 73 | 76 | 0.0 | 0.0 | 0.00 | 0.23 | 0.23 | 86 | 1010.9 |
| 20260903233025 | 73 | 76 | 0.0 | 0.0 | 0.00 | 0.23 | 0.23 | 86 | 1010.7 |
| 20260903231525 | 74 | 76 | 0.0 | 0.0 | 0.00 | 0.23 | 0.23 | 86 | 1010.8 |
| 20260903230025 | 74 | 76 | 0.0 | 0.0 | 0.00 | 0.23 | 0.23 | 85 | 1010.4 |
| 20260903224526 | 75 | 76 | 0.0 | 1.0 | 0.00 | 0.23 | 0.23 | 85 | 1010.7 |
| 20260903223026 | 75 | 76 | 0.0 | 3.0 | 0.00 | 0.23 | 0.23 | 85 | 1010.7 |
| 20260903221521 | 75 | 76 | 0.0 | 2.0 | 0.00 | 0.23 | 0.23 | 84 | 1011.0 |
| 20260903220021 | 76 | 76 | 0.0 | 2.0 | 0.00 | 0.23 | 0.23 | 84 | 1010.9 |
| 20260903214518 | 76 | 76 | 0.0 | 0.0 | 0.00 | 0.23 | 0.23 | 84 | 1010.7 |
| 20260903213027 | 76 | 76 | 0.0 | 1.0 | 0.00 | 0.23 | 0.23 | 84 | 1010.6 |
| 20260903211547 | 76 | 76 | 1.0 | 4.0 | 0.00 | 0.23 | 0.23 | 83 | 1010.7 |
| 20260903210017 | 77 | 78 | 0.0 | 2.0 | 0.00 | 0.23 | 0.23 | 83 | 1010.7 |
| 20260903204515 | 77 | 78 | 1.0 | 4.0 | 0.00 | 0.23 | 0.23 | 83 | 1010.7 |
| 20260903203014 | 77 | 80 | 1.0 | 6.0 | 0.00 | 0.23 | 0.23 | 83 | 1010.8 |
| 20260903201512 | 76 | 66 | 1.0 | 2.0 | 0.00 | 0.23 | 0.23 | 83 | 1011.0 |
| 20260903200011 | 77 | 65 | 1.0 | 5.0 | 0.00 | 0.23 | 0.23 | 83 | 1010.9 |
| 20260903194510 | 76 | 84 | 0.0 | 4.0 | 0.00 | 0.23 | 0.23 | 84 | 1011.0 |
| 20260903193008 | 76 | 94 | 1.0 | 4.0 | 0.00 | 0.23 | 0.23 | 84 | 1011.1 |
| 20260903191513 | 76 | 94 | 0.0 | 2.0 | 0.00 | 0.23 | 0.23 | 83 | 1011.3 |
| 20260903190004 | 77 | 94 | 1.0 | 3.0 | 0.00 | 0.23 | 0.23 | 83 | 1011.3 |
| 20260903184502 | 77 | 94 | 1.0 | 4.0 | 0.00 | 0.23 | 0.23 | 82 | 1011.5 |
| 20260903183100 | 77 | 94 | 2.0 | 4.0 | 0.00 | 0.23 | 0.23 | 82 | 1011.5 |
| 20260903181558 | 78 | 329 | 0.0 | 2.0 | 0.00 | 0.23 | 0.23 | 83 | 1011.7 |
| 20260903180106 | 78 | 329 | 0.0 | 3.0 | 0.00 | 0.23 | 0.23 | 81 | 1011.7 |
| 20260903174609 | 77 | 348 | 1.0 | 3.0 | 0.00 | 0.23 | 0.23 | 82 | 1011.8 |
| 20260903173055 | 77 | 348 | 1.0 | 5.0 | 0.00 | 0.23 | 0.23 | 83 | 1011.8 |
| 20260903171549 | 76 | 332 | 2.0 | 5.0 | 0.00 | 0.23 | 0.23 | 85 | 1012.0 |
| 20260903170105 | 74 | 316 | 1.0 | 6.0 | 0.00 | 0.23 | 0.23 | 87 | 1012.0 |
| 20260903164549 | 73 | 339 | 0.0 | 3.0 | 0.00 | 0.23 | 0.23 | 89 | 1011.9 |
| 20260903163036 | 72 | 336 | 0.0 | 2.0 | 0.00 | 0.23 | 0.23 | 90 | 1011.9 |
| 20260903161534 | 72 | 333 | 0.0 | 4.0 | 0.00 | 0.23 | 0.23 | 91 | 1011.9 |
| 20260903160033 | 71 | 350 | 0.0 | 2.0 | 0.00 | 0.23 | 0.23 | 92 | 1012.1 |
| 20260903154528 | 71 | 360 | 1.0 | 5.0 | 0.00 | 0.23 | 0.23 | 92 | 1012.4 |
| 20260903153025 | 71 | 340 | 1.0 | 4.0 | 0.00 | 0.23 | 0.23 | 92 | 1012.6 |